Regional Weather Roundup
Issued by NWS

Home | Current Version | Previous Version | Text Only | Print | Product List | Glossary Off
Versions: 1 2 3 4 5 6 7 8 9 10 11 12 13 14 15 16 17 18 19 20 21 22 23 24 25 26 27 28 29 30 31 32 33 34 35 36 37 38 39 40 41 42 43 44 45 46 47 48 49 50

000
ASUS45 KCYS 311610
RWRWY

WYOMING REGIONAL WEATHER ROUNDUP
NATIONAL WEATHER SERVICE CHEYENNE WY
1000 AM MDT THU JUL 31 2014

NOTE:  "FAIR" INDICATES FEW OR NO CLOUDS BELOW 12,000 FEET
WITH NO SIGNIFICANT WEATHER AND/OR OBSTRUCTIONS TO VISIBILITY.

WYZ001-311700-
YELLOWSTONE NATIONAL PARK

CITY           SKY/WX    TMP DP  RH WIND       PRES   REMARKS
LK YELLOWSTONE   N/A     57  46  66 VRB5      30.47F
W YELLOWSTONE  NOT AVBL

$$
WYZ002>013-054>058-071-098>099-311700-
NORTHERN WYOMING

CITY           SKY/WX    TMP DP  RH WIND       PRES   REMARKS
JACKSON        SUNNY     59  41  51 CALM      30.39F
CODY           NOT AVBL
GREYBULL       SUNNY     75  41  29 SE7       30.20S
WORLAND        SUNNY     72  45  37 W3        30.21S
SHERIDAN       SUNNY     79  46  31 CALM      30.18F
BUFFALO        SUNNY     79  37  22 S16       30.27R
GILLETTE       SUNNY     77  45  32 SW10      30.23S
HULETT         FAIR      72  46  40 MISG      30.24
NEWCASTLE      FAIR      73  43  33 SW5       30.25

$$
WYZ014>020-022>026-101>103-311700-
CENTRAL WYOMING

CITY           SKY/WX    TMP DP  RH WIND       PRES   REMARKS
BIG PINEY      SUNNY     60  47  61 CALM      30.42R
PINEDALE       SUNNY     61  41  48 CALM      30.42S
DUBOIS         FAIR      63  37  39 CALM      30.39S
LANDER         SUNNY     72  45  37 SE6       30.30R
RIVERTON       SUNNY     68  41  37 NW7       30.31S
CASPER         SUNNY     70  44  39 SE3       30.30S
DOUGLAS        SUNNY     71  47  42 S5        30.29S

$$
WYZ021-027>030-104>119-311700-
SOUTHERN WYOMING

CITY           SKY/WX    TMP DP  RH WIND       PRES   REMARKS
EVANSTON       MOSUNNY   62  46  55 E14       30.39S
KEMMERER       SUNNY     64  46  52 E6        30.41S
FORT BRIDGER   FAIR      61  51  69 E5        30.43S
ROCK SPRINGS   SUNNY     60  48  64 SW3       30.38S
DIXON          FAIR      65  49  56 W6        30.36S
RAWLINS        SUNNY     63  46  54 E7        30.37S
SARATOGA       FAIR      61  43  51 S5        30.38F
LARAMIE        SUNNY     59  47  64 CALM      30.39S
CHEYENNE       SUNNY     69  41  36 CALM      30.33S
TORRINGTON     SUNNY     71  53  52 SE5       30.23F
PINE BLUFFS    FAIR      70  46  43 CALM      30.29S

$$



USA.gov is the U.S. government's official web portal to all federal, state and local government web resources and services.